Simultaneous Nadir Overpasses (SNOs) Predictions

Prediction of SNOs between GOES-14 and NPP Satellite Orbit:

Table of predicted SNOs for the next 14.0 days since TLE Epoch: 10/24/2020
Index Date Time (GOES-14) GOES-14 Lat,Lon NPP Lat,Lon Distance(km) Time Diff (sec)
1 10/24/2020 08:11:23 0.17,-104.37 -0.34,-101.97 273.70 80
2 10/25/2020 20:33:20 -0.14,-104.27 -0.80,-107.28 342.86 80
3 10/26/2020 20:17:14 -0.15,-104.28 0.20,-102.74 174.64 80
4 10/28/2020 08:39:02 0.12,-104.40 0.91,-108.03 413.74 80
5 10/29/2020 08:17:37 0.14,-104.39 -0.09,-103.49 102.13 80
6 10/31/2020 20:23:27 -0.12,-104.26 -0.11,-104.26 1.37 80
7 11/03/2020 08:26:30 0.11,-104.40 0.22,-105.01 68.97 80
8 11/04/2020 08:05:03 0.13,-104.39 -0.72,-100.46 446.71 80
9 11/05/2020 20:26:58 -0.10,-104.24 -0.46,-105.77 174.63 80
10 11/06/2020 20:10:53 -0.11,-104.24 0.54,-101.23 342.62 80
